| time (UTC) | temp C | wind direction | speed KPH | gust KPH | rain 1hr cm | rain 24hr cm | rain mn cm | humidity % | barometer mb |
| 20260831200042 | -17 | 41 | 6.4 | 19.3 | 0.00 | 0.00 | 0.00 | 1017.6 | |
| 20260831194535 | -17 | 69 | 6.4 | 19.3 | 0.00 | 0.00 | 0.00 | 1017.4 | |
| 20260831193039 | -17 | 143 | 8.0 | 19.3 | 0.00 | 0.00 | 0.00 | 1017.2 | |
| 20260831191526 | -17 | 70 | 8.0 | 27.4 | 0.00 | 0.00 | 0.00 | 1017.1 | |
| 20260831190038 | -17 | 76 | 9.7 | 27.4 | 0.00 | 0.00 | 0.00 | 1017.2 | |
| 20260831184516 | -17 | 110 | 12.9 | 27.4 | 0.00 | 0.00 | 0.00 | 1017.1 | |
| 20260831183015 | -17 | 73 | 14.5 | 27.4 | 0.00 | 0.00 | 0.00 | 1016.8 | |
| 20260831181508 | -17 | 78 | 12.9 | 32.2 | 0.00 | 0.00 | 0.00 | 1016.8 | |
| 20260831180104 | -17 | 52 | 16.1 | 30.6 | 0.00 | 0.00 | 0.00 | 1017.0 | |
| 20260831174633 | -17 | 75 | 9.7 | 29.0 | 0.00 | 0.00 | 0.00 | 1016.9 | |
| 20260831173055 | -17 | 66 | 16.1 | 33.8 | 0.00 | 0.00 | 0.00 | 1016.7 | |
| 20260831171550 | -17 | 69 | 14.5 | 37.0 | 0.00 | 0.00 | 0.00 | 1016.8 | |
| 20260831170025 | -17 | 83 | 17.7 | 29.0 | 0.00 | 0.00 | 0.00 | 1016.9 | |
| 20260831164522 | -17 | 77 | 12.9 | 25.7 | 0.00 | 0.00 | 0.00 | 1016.9 | |
| 20260831163019 | -17 | 74 | 11.3 | 29.0 | 0.00 | 0.00 | 0.00 | 1017.0 | |
| 20260831161512 | -17 | 64 | 12.9 | 32.2 | 0.00 | 0.00 | 0.00 | 1017.1 | |
| 20260831160012 | -17 | 87 | 11.3 | 24.1 | 0.00 | 0.00 | 0.00 | 1017.2 | |
| 20260831154614 | -17 | 56 | 17.7 | 32.2 | 0.00 | 0.00 | 0.00 | 1017.3 | |
| 20260831153112 | -17 | 137 | 11.3 | 30.6 | 0.00 | 0.00 | 0.00 | 1017.5 | |
| 20260831151554 | -17 | 59 | 22.5 | 33.8 | 0.00 | 0.00 | 0.00 | 1017.4 | |
| 20260831150054 | -17 | 46 | 17.7 | 25.7 | 0.00 | 0.00 | 0.00 | 1017.5 | |
| 20260831144546 | -17 | 50 | 17.7 | 33.8 | 0.00 | 0.00 | 0.00 | 1017.5 | |
| 20260831143044 | -17 | 46 | 16.1 | 29.0 | 0.00 | 0.00 | 0.00 | 1017.6 | |
| 20260831141536 | -17 | 100 | 12.9 | 33.8 | 0.00 | 0.00 | 0.00 | 1017.8 | |
| 20260831140036 | -17 | 46 | 19.3 | 33.8 | 0.00 | 0.00 | 0.00 | 1017.7 | |
| 20260831134527 | -17 | 36 | 19.3 | 33.8 | 0.00 | 0.00 | 0.00 | 1017.7 | |
| 20260831133022 | -17 | 54 | 17.7 | 33.8 | 0.00 | 0.00 | 0.00 | 1017.8 | |
| 20260831131519 | -17 | 60 | 20.9 | 38.6 | 0.00 | 0.00 | 0.00 | 1017.6 | |
| 20260831130014 | -17 | 25 | 16.1 | 33.8 | 0.00 | 0.00 | 0.00 | 1017.8 | |
| 20260831124510 | -17 | 21 | 20.9 | 33.8 | 0.00 | 0.00 | 0.00 | 1017.8 | |
| 20260831123009 | -17 | 50 | 14.5 | 30.6 | 0.00 | 0.00 | 0.00 | 1018.0 | |
| 20260831121506 | -17 | 41 | 12.9 | 30.6 | 0.00 | 0.00 | 0.00 | 1018.1 | |
| 20260831120001 | -17 | 69 | 16.1 | 30.6 | 0.00 | 0.00 | 0.00 | 1018.2 | |
| 20260831114558 | -17 | 41 | 14.5 | 22.5 | 0.00 | 0.00 | 0.00 | 1018.3 | |
| 20260831113102 | -17 | 41 | 12.9 | 25.7 | 0.00 | 0.00 | 0.00 | 1018.3 | |
| 20260831111548 | -17 | 46 | 11.3 | 24.1 | 0.00 | 0.00 | 0.00 | 1018.4 | |
| 20260831110044 | -17 | 46 | 16.1 | 25.7 | 0.00 | 0.00 | 0.00 | 1018.5 | |
| 20260831104550 | -17 | 51 | 1.6 | 20.9 | 0.00 | 0.00 | 0.00 | 1018.5 | |
| 20260831103038 | -17 | 7 | 8.0 | 25.7 | 0.00 | 0.00 | 0.00 | 1018.4 | |
| 20260831101544 | -17 | 36 | 12.9 | 25.7 | 0.00 | 0.00 | 0.00 | 1018.3 | |
| 20260831100037 | -17 | 36 | 9.7 | 22.5 | 0.00 | 0.00 | 0.00 | 1018.4 | |
| 20260831094540 | -17 | 4 | 6.4 | 20.9 | 0.00 | 0.00 | 0.00 | 1018.5 | |
| 20260831093031 | -17 | 221 | 0.0 | 4.8 | 0.00 | 0.00 | 0.00 | 1018.4 | |
| 20260831091540 | -17 | 250 | 3.2 | 6.4 | 0.00 | 0.00 | 0.00 | 1018.3 | |
| 20260831090027 | -17 | 300 | 0.0 | 0.0 | 0.00 | 0.00 | 0.00 | 1018.2 | |
| 20260831084606 | -17 | 300 | 0.0 | 4.8 | 0.00 | 0.00 | 0.00 | 1018.1 | |
| 20260831083023 | -17 | 300 | 1.6 | 9.7 | 0.00 | 0.00 | 0.00 | 1017.9 | |
| 20260831081519 | -17 | 279 | 0.0 | 0.0 | 0.00 | 0.00 | 0.00 | 1018.1 | |
| 20260831080033 | -17 | 243 | 0.0 | 6.4 | 0.00 | 0.00 | 0.00 | 1018.0 | |
| 20260831074521 | -17 | 263 | 3.2 | 9.7 | 0.00 | 0.00 | 0.00 | 1017.8 | |
| 20260831073005 | -17 | 236 | 0.0 | 0.0 | 0.00 | 0.00 | 0.00 | 1017.6 | |
| 20260831071502 | -17 | 236 | 3.2 | 8.0 | 0.00 | 0.00 | 0.00 | 1017.4 | |
| 20260831070057 | -17 | 236 | 0.0 | 6.4 | 0.00 | 0.00 | 0.00 | 1017.3 | |
| 20260831064556 | -17 | 236 | 0.0 | 4.8 | 0.00 | 0.00 | 0.00 | 1017.3 | |
| 20260831063103 | -17 | 236 | 3.2 | 6.4 | 0.00 | 0.00 | 0.00 | 1017.3 | |
| 20260831061544 | -17 | 236 | 0.0 | 6.4 | 0.00 | 0.00 | 0.00 | 1017.3 | |
| 20260831060040 | -17 | 236 | 0.0 | 6.4 | 0.00 | 0.00 | 0.00 | 1017.2 | |
| 20260831054534 | -17 | 236 | 0.0 | 6.4 | 0.00 | 0.00 | 0.00 | 1017.2 | |
| 20260831053030 | -17 | 236 | 3.2 | 8.0 | 0.00 | 0.00 | 0.00 | 1017.3 | |
| 20260831051559 | -17 | 236 | 1.6 | 4.8 | 0.00 | 0.00 | 0.00 | 1017.4 | |
| 20260831050054 | -17 | 236 | 4.8 | 9.7 | 0.00 | 0.00 | 0.00 | 1017.4 | |
| 20260831044548 | -17 | 263 | 0.0 | 8.0 | 0.00 | 0.00 | 0.00 | 1017.4 | |
| 20260831043049 | -17 | 220 | 3.2 | 6.4 | 0.00 | 0.00 | 0.00 | 1017.4 | |
| 20260831041548 | -17 | 41 | 6.4 | 17.7 | 0.00 | 0.00 | 0.00 | 1017.5 | |
| 20260831040040 | -17 | 130 | 0.0 | 14.5 | 0.00 | 0.00 | 0.00 | 1017.7 | |
| 20260831034529 | -17 | 356 | 0.0 | 6.4 | 0.00 | 0.00 | 0.00 | 1017.8 | |
| 20260831033025 | -17 | 60 | 3.2 | 14.5 | 0.00 | 0.00 | 0.00 | 1017.9 | |
| 20260831031520 | -17 | 211 | 0.0 | 0.0 | 0.00 | 0.00 | 0.00 | 1018.1 | |
| 20260831030016 | -17 | 212 | 0.0 | 8.0 | 0.00 | 0.00 | 0.00 | 1018.1 | |
| 20260831024512 | -17 | 213 | 4.8 | 9.7 | 0.00 | 0.00 | 0.00 | 1018.1 | |
| 20260831023008 | -17 | 223 | 0.0 | 0.0 | 0.00 | 0.00 | 0.00 | 1018.2 | |
| 20260831021503 | -17 | 223 | 0.0 | 6.4 | 0.00 | 0.00 | 0.00 | 1018.0 | |
| 20260831020059 | -17 | 223 | 0.0 | 0.0 | 0.00 | 0.00 | 0.00 | 1018.2 | |
| 20260831014556 | -17 | 223 | 0.0 | 4.8 | 0.00 | 0.00 | 0.00 | 1018.4 | |
| 20260831013050 | -17 | 223 | 0.0 | 6.4 | 0.00 | 0.00 | 0.00 | 1018.6 | |
| 20260831011552 | -17 | 223 | 0.0 | 0.0 | 0.00 | 0.00 | 0.00 | 1018.6 | |
| 20260831010041 | -17 | 223 | 0.0 | 0.0 | 0.00 | 0.00 | 0.00 | 1018.8 | |
| 20260831004539 | -17 | 223 | 0.0 | 0.0 | 0.00 | 0.00 | 0.00 | 1018.8 | |
| 20260831003033 | -17 | 223 | 0.0 | 6.4 | 0.00 | 0.00 | 0.00 | 1019.0 | |
| 20260831001527 | -17 | 223 | 0.0 | 4.8 | 0.00 | 0.00 | 0.00 | 1019.1 | |
| 20260831000023 | -17 | 223 | 0.0 | 0.0 | 0.00 | 0.00 | 0.00 | 1018.8 | |
| 20260830234517 | -17 | 223 | 0.0 | 0.0 | 0.00 | 0.00 | 0.00 | 1018.7 | |
| 20260830233019 | -17 | 223 | 0.0 | 0.0 | 0.00 | 0.00 | 0.00 | 1018.8 | |
| 20260830231516 | -17 | 223 | 0.0 | 8.0 | 0.00 | 0.00 | 0.00 | 1018.7 | |
| 20260830230008 | -17 | 142 | 6.4 | 11.3 | 0.00 | 0.00 | 0.00 | 1019.0 | |
| 20260830224509 | -17 | 192 | 0.0 | 6.4 | 0.00 | 0.00 | 0.00 | 1019.2 | |
| 20260830223007 | -17 | 268 | 1.6 | 4.8 | 0.00 | 0.00 | 0.00 | 1019.0 | |
| 20260830221509 | -17 | 270 | 0.0 | 4.8 | 0.00 | 0.00 | 0.00 | 1018.9 | |
| 20260830220006 | -17 | 270 | 4.8 | 6.4 | 0.00 | 0.00 | 0.00 | 1018.9 | |
| 20260830214506 | -17 | 329 | 0.0 | 8.0 | 0.00 | 0.00 | 0.00 | 1018.8 | |
| 20260830213006 | -17 | 46 | 0.0 | 0.0 | 0.00 | 0.00 | 0.00 | 1018.7 | |
| 20260830211505 | -17 | 46 | 4.8 | 14.5 | 0.00 | 0.00 | 0.00 | 1018.5 | |
| 20260830210003 | -17 | 30 | 0.0 | 14.5 | 0.00 | 0.00 | 0.00 | 1018.3 | |
| 20260830204559 | -17 | 12 | 4.8 | 12.9 | 0.00 | 0.00 | 0.00 | 1018.1 | |
| 20260830203054 | 22 | 341 | 0.0 | 4.8 | 0.00 | 0.00 | 0.00 | 72 | 1018.0 |
| 20260830201554 | -17 | 12 | 8.0 | 16.1 | 0.00 | 0.00 | 0.00 | 1017.9 |